Starlink 33681

operational
NORAD ID: 63438 Int'l Des: 2025-069 Owner: SPXS Country: US Constellation: starlink
LEOCIRCULAR

Starlink 33681について

説明を読み込み中...

リアルタイム位置

3D地球を読み込み中...

次回通過

高度履歴

Altitude vs Time

uPlot chart will show altitude changes over time

軌道要素

1 63438U 25069F 25305.60238804 .00026914 00000-0 91720-3 0 9996
2 63438 53.1611 17.4588 0001481 95.7345 264.3825 15.30211646 33794
Epoch: Nov 1, 2025 • Age: 9 hours

現在のステータス

高度 494.0 km
速度 7.62 km/s
衛星直下点 -51.65°S, 88.99°W
打ち上げ日 Apr 4, 2025
運用期間 0.5 years
タイプ internet

技術仕様

分類 Payload
質量 575.00 kg
乾燥質量 530.00 kg
総質量 575.00 kg
長さ 0.30 m
直径 4.10 m
スパン 29.00 m
形状 Box + pan
製造者 SPXS
バスタイプ Starlink V2MO
フェーズステータス In Orbit
所有者/国 SPXS/US

大規模コンステレーション

Loading constellations...